This is the latest recevied weather packets stored in our database for station/object R2BLN-13. If no packets are shown the sender has not sent any weather packets the latest 10 day(s).
| Time | Temp. | Humidity | Pressure | Rain* | Wind** | Luminosity | Snow |
|---|---|---|---|---|---|---|---|
| 1788069406 | 35° C | 26% | 995.9 hPa | - | - | - | - |
| 1788068806 | 28.89° C | 43% | 996.3 hPa | - | - | - | - |
| 1788068206 | 21.67° C | 51% | 996.4 hPa | - | - | - | - |
| 1788067605 | 17.78° C | 61% | 996.7 hPa | - | - | - | - |
| 1788066999 | 16.11° C | 65% | 996.8 hPa | - | - | - | - |
| 1788066376 | 15.56° C | 65% | 996.8 hPa | - | - | - | - |
| 1788065776 | 14.44° C | 67% | 996.8 hPa | - | - | - | - |
| 1788065175 | 14.44° C | 65% | 996.9 hPa | - | - | - | - |
| 1788064576 | 14.44° C | 68% | 997 hPa | - | - | - | - |
| 1788063976 | 14.44° C | 70% | 997.1 hPa | - | - | - | - |
| 1788063376 | 13.89° C | 69% | 997.1 hPa | - | - | - | - |
| 1788062776 | 13.33° C | 71% | 997.2 hPa | - | - | - | - |
| 1788062175 | 12.22° C | 72% | 997.2 hPa | - | - | - | - |
| 1788061576 | 12.22° C | 74% | 997.3 hPa | - | - | - | - |
| 1788060976 | 11.67° C | 74% | 997.4 hPa | - | - | - | - |
| 1788060376 | 11.11° C | 74% | 997.4 hPa | - | - | - | - |
| 1788059776 | 11.11° C | 74% | 997.5 hPa | - | - | - | - |
| 1788059176 | 11.11° C | 75% | 997.6 hPa | - | - | - | - |
| 1788058576 | 11.11° C | 74% | 997.6 hPa | - | - | - | - |
| 1788057976 | 11.11° C | 74% | 997.7 hPa | - | - | - | - |
| 1788057375 | 11.11° C | 74% | 997.7 hPa | - | - | - | - |
| 1788056776 | 11.11° C | 74% | 997.6 hPa | - | - | - | - |
| 1788056176 | 11.11° C | 74% | 997.7 hPa | - | - | - | - |
| 1788055566 | 11.11° C | 75% | 997.7 hPa | - | - | - | - |
| 1788054948 | 11.11° C | 74% | 997.7 hPa | - | - | - | - |
* Rain since midnight (hover to see other rain measurements)
** Current wind speed in m/s (hover to see current wind gust speed)